Satellite: XATCOBEO
Catalog number: 38082
Epoch time:      12124.86158867
Element set:     209
Inclination:      069.4917 deg
RA of node:       056.7211 deg
Eccentricity:    0.0749530
Arg of perigee:   303.5789 deg
Mean anomaly:     049.5821 deg
Mean motion:   14.13417813 rev/day
Decay rate:     4.7289e-04 rev/day^2
Epoch rev:            1132
Checksum:              318

/EX
SB KEPS @ AMSAT  $ORB12124.W
Orbital Elements  12124.WEATHER

HR AMSAT ORBITAL ELEMENTS FOR WEATHER SATELLITES
FROM WA5QGD FORT WORTH,TX May 3, 2012
Send SUBSCRIBE KEPS/UNSUBSCRIBE KEPS to majordomo@amsat.org only
BID: ORB12124.W
TO ALL RADIO AMATEURS BT

Satellite: NOAA-10
Catalog number: 16969
Epoch time:      12123.95229286
Element set:    0915
Inclination:      098.5854 deg
RA of node:       153.8018 deg
Eccentricity:    0.0012564
Arg of perigee:   011.3446 deg
Mean anomaly:     348.8016 deg
Mean motion:   14.27546391 rev/day
Decay rate:       1.37e-06 rev/day^2
Epoch rev:           33341
Checksum:              308

Satellite: NOAA-11
Catalog number: 19531
Epoch time:      12123.81796870
Element set:    0908
Inclination:      098.7313 deg
RA of node:       209.9284 deg
Eccentricity:    0.0011424
Arg of perigee:   358.0385 deg
Mean anomaly:     002.0749 deg
Mean motion:   14.14963341 rev/day
Decay rate:      -2.61e-06 rev/day^2
Epoch rev:           21809
Checksum:              300

Satellite: NOAA-12
Catalog number: 21263
Epoch time:      12123.98492768
Element set:    0408
Inclination:      098.7325 deg
RA of node:       145.8572 deg
Eccentricity:    0.0013606
Arg of perigee:   336.5909 deg
Mean anomaly:     023.4654 deg
Mean motion:   14.25491008 rev/day
Decay rate:       -1.4e-07 rev/day^2
Epoch rev:           09011
Checksum:              294

Satellite: MET-3/5
Catalog number: 21655
Epoch time:      12123.79611831
Element set:     398
Inclination:      082.5570 deg
RA of node:       184.2520 deg
Eccentricity:    0.0014597
Arg of perigee:   079.0010 deg
Mean anomaly:     281.2753 deg
Mean motion:   13.17036893 rev/day
Decay rate:       1.73e-06 rev/day^2
Epoch rev:           99592
Checksum:              308

Satellite: MET-2/21
Catalog number: 22782
Epoch time:      12124.75696704
Element set:     407
Inclination:      082.5478 deg
RA of node:       067.7618 deg
Eccentricity:    0.0020906
Arg of perigee:   278.4673 deg
Mean anomaly:     081.4122 deg
Mean motion:   13.83682020 rev/day
Decay rate:       1.40e-06 rev/day^2
Epoch rev:           94302
Checksum:              298

Satellite: OKEAN-4
Catalog number: 23317
Epoch time:      12123.91590612
Element set:    0877
Inclination:      082.5396 deg
RA of node:       073.5221 deg
Eccentricity:    0.0022483
Arg of perigee:   136.9738 deg
Mean anomaly:     223.3238 deg
Mean motion:   14.83724330 rev/day
Decay rate:       9.45e-06 rev/day^2
Epoch rev:           94809
Checksum:              309

Satellite: NOAA-14
Catalog number: 23455
Epoch time:      12123.96913788
Element set:    0889
Inclination:      098.8270 deg
RA of node:       208.0336 deg
Eccentricity:    0.0010316
Arg of perigee:   087.6408 deg
Mean anomaly:     272.5944 deg
Mean motion:   14.13894733 rev/day
Decay rate:       1.31e-06 rev/day^2
Epoch rev:           89440
Checksum:              325

Satellite: NOAA-15
Catalog number: 25338
Epoch time:      12123.55957976
Element set:    0247
Inclination:      098.6883 deg
RA of node:       110.9054 deg
Eccentricity:    0.0009765
Arg of perigee:   238.9236 deg
Mean anomaly:     121.0980 deg
Mean motion:   14.25062281 rev/day
Decay rate:       4.04e-06 rev/day^2
Epoch rev:           72635
Checksum:              317

Satellite: RESURS
Catalog number: 25394
Epoch time:      12123.94944476
Element set:    0079
Inclination:      098.3189 deg
RA of node:       114.5747 deg
Eccentricity:    0.0002210
Arg of perigee:   036.3623 deg
Mean anomaly:     323.7708 deg
Mean motion:   14.24285573 rev/day
Decay rate:        9.0e-07 rev/day^2
Epoch rev:           71796
Checksum:              310

Satellite: FENGYUN1
Catalog number: 25730
Epoch time:      12123.92615675
Element set:     596
Inclination:      098.8447 deg
RA of node:       083.7039 deg
Eccentricity:    0.0019462
Arg of perigee:   129.1478 deg
Mean anomaly:     231.1408 deg
Mean motion:   14.09457858 rev/day
Decay rate:      2.053e-05 rev/day^2
Epoch rev:           66823
Checksum:              325

Satellite: OKEAN-0
Catalog number: 25860
Epoch time:      12124.87059330
Element set:     617
Inclination:      097.9319 deg
RA of node:       088.4321 deg
Eccentricity:    0.0001849
Arg of perigee:   051.8369 deg
Mean anomaly:     308.3004 deg
Mean motion:   14.74174263 rev/day
Decay rate:       5.70e-06 rev/day^2
Epoch rev:           68804
Checksum:              303

Satellite: NOAA-16
Catalog number: 26536
Epoch time:      12123.56855283
Element set:    0732
Inclination:      099.0992 deg
RA of node:       164.9773 deg
Eccentricity:    0.0010206
Arg of perigee:   208.1936 deg
Mean anomaly:     151.8689 deg
Mean motion:   14.12730914 rev/day
Decay rate:       -4.1e-07 rev/day^2
Epoch rev:           59859
Checksum:              328

